{"data":{"norad_id":64500,"intl_designator":"2025-134A","name":"KUIPER-00039","alt_names":[],"object_type":"PAYLOAD","status":"ACTIVE","operator":null,"country":"US","launch_date":"2025-06-23","launch_site_code":"AFETR","launch_vehicle":null,"mission":null,"orbit_class":"UNKNOWN","rcs_meters":null,"size_class":null,"mass_kg":null,"dimensions":null,"purposes":[],"wikipedia_slug":null,"has_3d_model":false,"image_url":null,"decayed_at":null,"tle_current":{"epoch":"2026-09-21T19:18:25.000992Z","epoch_age_seconds":68884,"freshness":"FRESH","line1":"1 64500U 25134A   26264.80445603  .00001750  00000+0  25850-3 0  9995","line2":"2 64500  51.9016  85.8994 0000801 115.5901 244.5145 14.79941111 69113","mean_motion":14.79941111,"eccentricity":8.01e-5,"inclination_deg":51.9016,"raan_deg":85.8994,"arg_perigee_deg":115.5901,"mean_anomaly_deg":244.5145,"bstar":0.0002585,"rev_number":6911,"period_min":97.301168897659,"perigee_km":628.94871234815,"apogee_km":630.07133740154,"semimajor_km":7007.6470248748,"source":"CELESTRAK","updated_at":"2026-09-22T09:00:29.805023Z"}}}